sat.trackr.live / text

‹ back to catalog

STARLINK-5886

NORAD 56350 · 2023-058AK

PAYLOAD ACTIVE UNKNOWN

§ Identity

Operator
Country
US
Launch date
2023-04-27
Launch site
AFWTR
Launch vehicle
Mass (kg)
RCS (m²)

Purposes: comms

External: N2YO · Heavens-Above · Gunter

§ Orbital elements

Epoch: 2026-09-20T22:34:12.683712Z

Period
93.91 min
Inclination
97.2844°
Eccentricity
0.0001511
Mean motion
15.33434201 rev/d
Perigee alt
464.5 km
Apogee alt
466.6 km
Semi-major
6,843.7 km
B*
-9.7580e-6
RAAN
260.7065°
Arg perigee
89.8257°
Mean anomaly
270.3159°
Rev number
18,770

§ Raw data

STARLINK-58861 56350U 23058AK  26263.94042458 -.00000390  00000+0 -97580-5 0  99992 56350  97.2844 260.7065 0001511  89.8257 270.3159 15.33434201187704

JSON: /api/v1/satellites/56350 · /tle

For live sub-satellite position, see the globe view (requires WebGL).

§ Visibility from observer

Set your observer location to see the next 7 days of passes ≥ 10°. The values pass through the URL so the page stays shareable.

No JS? Fill the form by hand. The geolocation button needs JavaScript.